Regional Weather Roundup
Issued by NWS

Home | Current Version | Previous Version | Text Only | Print | Product List | Glossary On
Versions: 1 2 3 4 5 6 7 8 9 10 11 12 13 14 15 16 17 18 19 20 21 22 23 24 25 26 27 28 29 30 31 32 33 34 35 36 37 38 39 40 41 42 43 44 45 46 47 48 49 50
000
ASUS43 KTOP 291108
RWRKS

WEATHER ROUNDUP FOR KANSAS
NATIONAL WEATHER SERVICE GOODLAND KS
500 AM CST MON DEC 29 2014

NOTE:  "FAIR" INDICATES FEW OR NO CLOUDS BELOW 12,000 FEET WITH NO
SIGNIFICANT WEATHER AND/OR OBSTRUCTIONS TO VISIBILITY.

KSZ001>006-013>018-027>032-041>047-291200-
NORTHWEST KANSAS

CITY           SKY/WX    TMP DP  RH WIND       PRES   REMARKS
GOODLAND       FOG       18  17  96 N9        30.05R VSB 1/2
HAYS           CLEAR     19  10  68 E6        30.10S
HILL CITY      CLEAR     18  14  84 N10       30.13R WCI   6
RUSSELL        CLEAR     21  18  88 E5        30.11S
$$

KSZ061>065-074>080-084>089-291200-
SOUTHWEST KANSAS

CITY           SKY/WX    TMP DP  RH WIND       PRES   REMARKS
DODGE CITY     CLEAR     19  14  81 E6        30.05S
ELKHART          N/A     19  11  71 N7          N/A
GARDEN CITY    CLEAR     14  12  92 E6        30.03S
GREAT BEND     FAIR      21  14  73 E5        30.12S
LIBERAL        CLEAR     21  14  73 E3        30.02S
PRATT          CLEAR     21  19  93 E7        30.10S
$$

KSZ066>073-081>083-090>101-291200-
SOUTHEAST KANSAS

CITY           SKY/WX    TMP DP  RH WIND       PRES   REMARKS
CHANUTE        CLEAR     20  18  92 CALM      30.18S
COFFEYVILLE    CLEAR     22  20  92 E5        30.18S
HUTCHINSON     CLEAR     22  16  78 NE5       30.15R
MEDICINE LODGE   N/A     25  20  81 E8        30.10S
NEWTON         CLEAR     19  12  73 E6        30.16R
PARSONS        CLEAR     24  21  88 E3        30.18F
WICHITA INTL   CLEAR     24  17  74 E5        30.15R
WICHITA JABRA  CLEAR     21  17  84 NE3       30.15R
WICHITA MCCONL CLEAR     24  19  78 E7        30.15R
WINFIELD       MOCLDY    24  20  84 E5        30.16R
$$

KSZ007>012-019>026-033>040-048>060-102>105-291200-
NORTHEAST KANSAS

CITY           SKY/WX    TMP DP  RH WIND       PRES   REMARKS
CONCORDIA      CLEAR     21  19  92 CALM      30.18R
EMPORIA        CLEAR     20  17  88 CALM      30.17S
LAWRENCE       CLEAR     18  15  88 CALM      30.21S
MANHATTAN      CLEAR     19  15  84 CALM      30.20R
MARYSVILLE     CLEAR     27  21  80 N5        30.20R
OLATHE IND     FAIR      25  19  78 E7        30.20S
OLATHE EXE     FAIR      25  19  78 SE5       30.19R
SALINA         CLEAR     23  18  81 N3        30.18R
TOPEKA BILLARD CLEAR     21  17  84 CALM      30.21R
TOPEKA FORBES  CLEAR     21  15  78 CALM      30.20R
$$



USA.gov is the U.S. government's official web portal to all federal, state and local government web resources and services.